Regional Weather Roundup
Issued by NWS

Home | Current Version | Previous Version | Text Only | Print | Product List | Glossary Off
Versions: 1 2 3 4 5 6 7 8 9 10 11 12 13 14 15 16 17 18 19 20 21 22 23 24 25 26 27 28 29 30 31 32 33 34 35 36 37 38 39 40 41 42 43 44 45 46 47 48 49 50

000
ASUS45 KABQ 222001
RWRNM
NEW MEXICO REGIONAL WEATHER ROUNDUP
NATIONAL WEATHER SERVICE ALBUQUERQUE NM
200 PM MDT TUE AUG 22 2017

NOTE: "FAIR" MEANS FEW OR NO CLOUDS BELOW 12,000 FEET AGL WITH NO
       SIGNIFICANT WEATHER OR OBSTRUCTIONS TO VISION.

      THIS PRODUCT IS RELEASED AS TWO VERSIONS.  ONE VERSION NEAR
      THE TOP OF THE HOUR CONTAINING PRELIMINARY DATA FROM ALBUQUERQUE
      AND OTHER STATIONS.  A FINAL VERSION WITH ADDITIONAL DATA IS
      ISSUED ABOUT 10 MINUTES AFTER THE HOUR.

NMZ501-503-504-510>518-222100-
NORTHWEST PLATEAU/NORTHCENTRAL MOUNTAINS

CITY           SKY/WX    TMP DP  RH WIND       PRES   REMARKS
FARMINGTON     FAIR      82  47  29 VRB3      30.27F
LOS ALAMOS     FAIR      74  46  37 NE6       30.42F
SANTA FE       FAIR      79  48  33 E7        30.35F
TAOS           FAIR      71  51  49 SE17G29   30.43F
ANGEL FIRE     CLOUDY    61  51  70 N5        30.53S

$$
NMZ402-403-502-505>509-222100-
WESTCENTRAL MOUNTAINS/SOUTHWEST MOUNTAINS

CITY           SKY/WX    TMP DP  RH WIND       PRES   REMARKS
GALLUP         FAIR      83  42  23 SW7       30.33F
GRANTS         PTSUNNY   75  53  46 S8        30.37F
SILVER CITY    FAIR      88  50  27 SE12      30.27F

$$
NMZ407-409-411-412-222100-
SOUTHERN DESERTS

CITY           SKY/WX    TMP DP  RH WIND       PRES   REMARKS
DEMING         FAIR      90  57  32 VRB6      30.19F
LAS CRUCES     FAIR      87  58  36 SE5       30.22F
HOLLOMAN AFB   FAIR      91  59  34 SW7       30.19F
ALAMOGORDO     FAIR      88  59  37 SW5       30.20S
T OR C         FAIR      91  52  26 S9        30.21F

$$
NMZ519>523-222100-
CENTRAL VALLEYS/CENTRAL HIGHLANDS

CITY           SKY/WX    TMP DP  RH WIND       PRES   REMARKS
ALBUQUERQUE    FAIR      84  51  31 VRB5      30.28F
DOUBLE EAGLE   PTSUNNY   73  54  49 VRB7      30.33F
CLINES CORNERS FAIR      75  53  46 MISG      30.41F
BELEN          FAIR      83  51  32 NE3       30.27F
SOCORRO        FAIR      86  49  28 CALM      30.23F

$$
NMZ524>526-539-540-222100-
SOUTHCENTRAL MOUNTAINS

CITY           SKY/WX    TMP DP  RH WIND       PRES   REMARKS
RUIDOSO        PTSUNNY   64  54  68 S10       30.41S THUNDER

$$
NMZ527>531-222100-
NORTHEAST HIGHLANDS/NORTHEAST PLAINS

CITY           SKY/WX    TMP DP  RH WIND       PRES   REMARKS
LAS VEGAS      CLOUDY    68  56  65 NE17G23   30.42S
RATON          CLOUDY    64  59  83 S20       30.40R
CLAYTON        CLOUDY    65  64  97 NE10      30.34F

$$
NMZ532>537-222100-
EASTCENTRAL PLAINS

CITY           SKY/WX    TMP DP  RH WIND       PRES   REMARKS
SANTA ROSA     MOCLDY    78  61  56 N16       30.28S
TUCUMCARI      FAIR      73  69  87 NE16G25   30.23F
CANNON AFB     PTSUNNY   81  70  69 NE10      30.23S THUNDER
CLOVIS AIRPORT TSTM      72  66  81 W7        30.24S

$$
NMZ028-029-538-222100-
SOUTHEAST PLAINS

CITY           SKY/WX    TMP DP  RH WIND       PRES   REMARKS
ROSWELL        FAIR      90  62  39 E10       30.15F
ARTESIA        FAIR      91  63  38 N7G14     30.15S
CARLSBAD       FAIR      89  69  51 VRB5      30.13F
HOBBS          PTSUNNY   90  59  35 VRB3      30.15F


$$



USA.gov is the U.S. government's official web portal to all federal, state and local government web resources and services.